NOAA 16 DEB, 41508

Orbit data source: Space-Track

NOAA 16 DEB, 41508 is space debris in SSO originally from a launch on Thu, 21 Sep 2000 UTC launched from the Air Force Western Test Range (AFWTR). Debris objects in space refer to the collection of defunct objects orbiting the Earth. Examples of debris include non-operational satellites, rocket bodies, and fragments generated from explosions, collisions, or faulty payload assembly.

Loading next visibility...
Identifier
41508, 2000-055MG
Orbit
SSO
Country
Flag of USUS
Related business
Manufacturer
Unknown
Mission
Spacecraft
Bus & Motor
Unknown
Mass
Unknown
Launch date (UTC)
2000-09-21 (25 years ago)
Launch vehicle
Unknown
Launch site
Air Force Western Test Range (AFWTR)
Object type
Payload
Rocket body
Debris
Shape & HBR
Unknown shape, 0.1 m
Radar Cross Section
Small (<0.1 m²)

Expand to show TLE details & history
Last TLE update: 12 hours ago

TLE from 12 hours ago
0 NOAA 16 DEB
1 41508U 00055MG  25292.28067141  .00010425  00000-0  38811-2 0  9992
2 41508  98.8521  47.8094 0024739 263.6357  96.2008 14.32036458492132
Epoch: 2025-10-19T06:44Z
TLE epoch observation values (Epoch: 2025-10-19T06:44:10.009Z)
Latitude
-0.00006°
Longitude
-81.23189°
Altitude
789.816 km
Speed
7.458 km/s
True Right ascension
03h 11m 14s
True Declination
0° 00' 00"
Sunlit
Object was in full shadow at epoch
Visualization orbit readout
Latitude
Unknown
Longitude
Unknown
Altitude
Unknown
Speed
Unknown
Apparent Right ascension
Unknown
Apparent Declination
Unknown
Sunlit
N/A
Visualization observer readout
Local Sidereal Time
13:21:52
Azimuth
Unknown
Elevation
Unknown
Doppler factor
Unknown
Orbital elements
Apogee altitude
799.795 km
Perigee altitude
764.368 km
Semi-major axis
7,160.218 km
Eccentricity
0.00247
Inclination
98.8521°
RAAN
47.8094°
Arg. of periapsis
263.6357°
True anomaly
96.48253°
Mean anomaly
96.2008°
Eccentric anomaly
96.34168°
Mean motion
3.58223 °/min
Orbital period
100.5 mins
BSTAR
0.0038811
Loading maneuver chart data...
Computing Atmospheric mass density...

Documentation

Showing up to 5 results
|